Hourly Data Report for October 16, 2020

SHEARWATER RCS
NOVA SCOTIA
Current Station Operator: ECCC - MSC

44°37'47.000" N
63°30'48.000" W
24.00 m
8205092
71264
AAW

Download Data

Hourly Data (October 2020)
Hourly Data Report for October 16, 2020
TIME Temp Definition
°C
Dew Point Definition
°C
Rel Hum Definition
%
Wind Dir Definition
10's deg

Wind Spd Definition
km/h
Visibility Definition
km
Stn Press Definition
kPa
Hmdx Definition


Wind Chill Definition


Weather Definition


00:00 9.0 7.9 93 16 4   101.97     LegendNANA
01:00 9.3 8.8 97 19 4   102.01     LegendNANA
02:00 9.6 9.3 97 19 3   102.05     LegendNANA
03:00 9.5 9.1 98 14 5   102.05     LegendNANA
04:00 9.4 9.1 98 11 5   102.06     LegendNANA
05:00 9.2 8.9 98 13 5   102.09     LegendNANA
06:00 9.0 8.8 98 11 5   102.12     LegendNANA
07:00 10.1 9.7 97 13 2   102.16     LegendNANA
08:00 12.6 11.7 94 11 5   102.21     LegendNANA
09:00 14.2 11.5 84 16 11   102.26     LegendNANA
10:00 14.7 11.5 81 16 14   102.29     LegendNANA
11:00 15.8 11.8 77 16 14   102.31     LegendNANA
12:00 15.6 11.7 77 16 15   102.30     LegendNANA
13:00 15.5 11.0 74 16 17   102.25     LegendNANA
14:00 15.6 9.4 67 16 17   102.22     LegendNANA
15:00 15.7 9.5 67 16 12   102.21     LegendNANA
16:00 14.6 9.3 71 15 13   102.19     LegendNANA
17:00 13.7 9.9 78 15 10   102.18     LegendNANA
18:00 12.0 9.3 84 11 5   102.17     LegendNANA
19:00 11.1 9.7 91 9 5   102.19     LegendNANA
20:00 10.8 9.6 92 9 7   102.16     LegendNANA
21:00 10.8 9.8 94 8 8   102.17     LegendNANA
22:00 10.7 9.8 94 9 8   102.17     LegendNANA
23:00 10.8 9.9 94 9 8   102.15     LegendNANA

Notes on Data Quality.

Legend

  • E = Estimated
  • M = Missing
  • NA = Not Available*
  • [empty] = Indicates an unobserved value
Date modified: